OZ7MKS Weather Reports


time (UTC)temp
C
wind
direction
speed
KPH
gust
KPH
rain 1hr
cm
rain 24hr
cm
rain mn
cm
humidity
%
barometer
mb
20260507204003 10 279 0.0 1.6 0.00 0.00 0.00 80 1019.4
20260507203504 10 279 0.0 0.0 0.00 0.00 0.00 80 1019.3
20260507202503 10 279 0.0 1.6 0.00 0.00 0.00 80 1019.3
20260507201504 11 279 0.0 1.6 0.00 0.00 0.00 79 1019.2
20260507201003 11 279 0.0 0.0 0.00 0.00 0.00 79 1019.2
20260507200504 11 279 0.0 0.0 0.00 0.00 0.00 78 1019.3
20260507200004 11 279 0.0 3.2 0.00 0.00 0.00 78 1019.3
20260507195503 11 279 1.6 3.2 0.00 0.00 0.00 77 1019.2
20260507195003 11 279 1.6 4.8 0.00 0.00 0.00 77 1019.1
20260507194504 11 279 1.6 4.8 0.00 0.00 0.00 77 1019.1
20260507194004 11 279 0.0 3.2 0.00 0.00 0.00 77 1019.0
20260507193503 11 279 0.0 0.0 0.00 0.00 0.00 76 1018.9
20260507193004 11 279 0.0 0.0 0.00 0.00 0.00 75 1018.9
20260507191503 12 279 0.0 1.6 0.00 0.00 0.00 74 1018.8
20260507191004 12 279 0.0 1.6 0.00 0.00 0.00 73 1018.8
20260507190504 12 279 0.0 3.2 0.00 0.00 0.00 73 1018.7
20260507190004 12 279 3.2 4.8 0.00 0.00 0.00 71 1018.6
20260507185004 12 281 4.8 9.7 0.00 0.00 0.00 70 1018.5
20260507184504 12 272 3.2 4.8 0.00 0.00 0.00 70 1018.5
20260507184004 12 271 3.2 4.8 0.00 0.00 0.00 71 1018.4
20260507183503 12 269 0.0 4.8 0.00 0.00 0.00 71 1018.4
20260507183003 12 269 3.2 4.8 0.00 0.00 0.00 70 1018.4
20260507182504 13 275 1.6 4.8 0.00 0.00 0.00 70 1018.4
20260507182004 13 276 3.2 4.8 0.00 0.00 0.00 69 1018.4
20260507181504 13 277 3.2 9.7 0.00 0.00 0.00 69 1018.3
20260507181003 13 269 3.2 9.7 0.00 0.00 0.00 69 1018.2
20260507180504 13 283 3.2 11.3 0.00 0.00 0.00 69 1018.2
20260507180004 13 258 3.2 4.8 0.00 0.00 0.00 69 1018.2
20260507175504 13 272 4.8 9.7 0.00 0.00 0.00 68 1018.1
20260507175004 13 267 3.2 11.3 0.00 0.00 0.00 67 1018.1
20260507174503 13 264 6.4 12.9 0.00 0.00 0.00 67 1018.1
20260507174003 13 271 3.2 9.7 0.00 0.00 0.00 67 1018.0
20260507173503 13 272 3.2 4.8 0.00 0.00 0.00 68 1018.0
20260507173004 13 263 3.2 11.3 0.00 0.00 0.00 68 1018.0
20260507172004 13 281 4.8 9.7 0.00 0.00 0.00 67 1017.8
20260507171503 13 249 4.8 9.7 0.00 0.00 0.00 65 1017.8
20260507171004 13 264 4.8 11.3 0.00 0.00 0.00 66 1017.8
20260507170503 13 267 3.2 9.7 0.00 0.00 0.00 67 1017.8
20260507165504 13 269 6.4 12.9 0.00 0.00 0.00 67 1017.7
20260507165004 13 262 9.7 16.1 0.00 0.00 0.00 66 1017.7
20260507164503 14 269 8.0 12.9 0.00 0.00 0.00 66 1017.7
20260507164004 14 273 6.4 16.1 0.00 0.00 0.00 67 1017.6
20260507163504 14 274 11.3 19.3 0.00 0.00 0.00 66 1017.7
20260507163003 15 265 6.4 12.9 0.00 0.00 0.00 65 1017.6
20260507162504 15 269 9.7 20.9 0.00 0.00 0.00 65 1017.6
20260507162003 15 268 9.7 19.3 0.00 0.00 0.00 64 1017.6
20260507161504 16 276 8.0 16.1 0.00 0.00 0.00 64 1017.5
20260507161004 16 255 11.3 19.3 0.00 0.00 0.00 63 1017.5
20260507160504 16 244 9.7 19.3 0.00 0.00 0.00 63 1017.5
20260507160004 16 282 8.0 19.3 0.00 0.00 0.00 63 1017.4
20260507155004 16 281 8.0 20.9 0.00 0.00 0.00 62 1017.4
20260507154504 16 263 9.7 20.9 0.00 0.00 0.00 63 1017.3
20260507154004 16 247 8.0 19.3 0.00 0.00 0.00 61 1017.4
20260507153504 16 293 8.0 16.1 0.00 0.00 0.00 61 1017.3
20260507153004 16 269 9.7 16.1 0.00 0.00 0.00 61 1017.3
20260507152504 16 283 3.2 11.3 0.00 0.00 0.00 62 1017.2
20260507152003 16 322 3.2 12.9 0.00 0.00 0.00 59 1017.2
20260507151004 16 346 4.8 9.7 0.00 0.00 0.00 60 1017.2
20260507150504 16 269 3.2 9.7 0.00 0.00 0.00 61 1017.2
20260507150004 16 276 3.2 11.3 0.00 0.00 0.00 60 1017.2
20260507145504 16 271 1.6 11.3 0.00 0.00 0.00 62 1017.2
20260507145004 16 264 9.7 19.3 0.00 0.00 0.00 60 1017.2
20260507144504 16 268 6.4 19.3 0.00 0.00 0.00 59 1017.2
20260507144003 17 246 8.0 12.9 0.00 0.00 0.00 55 1017.2
20260507143503 17 270 4.8 14.5 0.00 0.00 0.00 58 1017.2
20260507142504 17 320 3.2 4.8 0.00 0.00 0.00 56 1017.2
20260507142004 17 290 4.8 11.3 0.00 0.00 0.00 56 1017.1
20260507141503 17 201 3.2 9.7 0.00 0.00 0.00 56 1017.1
20260507141004 17 189 8.0 12.9 0.00 0.00 0.00 57 1017.1
20260507140504 16 248 1.6 8.0 0.00 0.00 0.00 58 1017.1
20260507140004 16 263 3.2 12.9 0.00 0.00 0.00 57 1017.1
20260507135504 16 260 1.6 9.7 0.00 0.00 0.00 57 1017.1
20260507135004 16 244 4.8 11.3 0.00 0.00 0.00 55 1017.2
20260507134503 16 259 4.8 14.5 0.00 0.00 0.00 57 1017.1
20260507133504 16 262 3.2 9.7 0.00 0.00 0.00 57 1017.2
20260507133003 16 233 4.8 9.7 0.00 0.00 0.00 56 1017.2
20260507132504 16 51 3.2 4.8 0.00 0.00 0.00 57 1017.1
20260507132004 17 66 3.2 11.3 0.00 0.00 0.00 56 1017.2
20260507131503 17 265 3.2 11.3 0.00 0.00 0.00 56 1017.1
20260507131003 17 71 3.2 4.8 0.00 0.00 0.00 58 1017.1
20260507130503 17 84 3.2 4.8 0.00 0.00 0.00 59 1017.0
20260507130004 16 22 4.8 9.7 0.00 0.00 0.00 58 1017.1
20260507125004 16 84 1.6 4.8 0.00 0.00 0.00 57 1017.1
20260507124504 16 54 3.2 4.8 0.00 0.00 0.00 58 1017.1
20260507124004 16 276 3.2 11.3 0.00 0.00 0.00 57 1017.1
20260507123504 16 276 3.2 8.0 0.00 0.00 0.00 56 1017.1
20260507122503 16 224 3.2 8.0 0.00 0.00 0.00 56 1017.0
20260507122004 16 336 4.8 12.9 0.00 0.00 0.00 56 1017.1
20260507121004 16 273 3.2 11.3 0.00 0.00 0.00 55 1017.0
20260507120504 16 328 1.6 4.8 0.00 0.00 0.00 57 1017.0
20260507115503 16 174 1.6 9.7 0.00 0.00 0.00 57 1017.0
20260507115004 16 196 4.8 9.7 0.00 0.00 0.00 54 1017.0
20260507114504 16 90 4.8 11.3 0.00 0.00 0.00 55 1017.0
20260507114004 16 60 3.2 11.3 0.00 0.00 0.00 57 1017.0
20260507113503 16 82 6.4 12.9 0.00 0.00 0.00 57 1017.1
20260507113004 16 53 3.2 11.3 0.00 0.00 0.00 58 1017.2
20260507112504 16 55 4.8 12.9 0.00 0.00 0.00 57 1017.2
20260507112004 16 337 3.2 9.7 0.00 0.00 0.00 56 1017.2
20260507111504 16 28 3.2 4.8 0.00 0.00 0.00 58 1017.2
20260507110503 15 36 4.8 9.7 0.00 0.00 0.00 59 1017.2
20260507110004 15 95 4.8 9.7 0.00 0.00 0.00 59 1017.2
20260507105504 14 37 4.8 9.7 0.00 0.00 0.00 61 1017.2
20260507105004 13 55 1.6 4.8 0.00 0.00 0.00 58 1017.3
20260507104004 13 323 3.2 4.8 0.00 0.00 0.00 57 1017.3
20260507103504 13 327 3.2 4.8 0.00 0.00 0.00 60 1017.2
20260507103003 14 17 3.2 8.0 0.00 0.00 0.00 58 1017.2
20260507102504 14 6 3.2 4.8 0.00 0.00 0.00 56 1017.2
20260507102006 14 109 1.6 4.8 0.00 0.00 0.00 57 1017.2
20260507101504 14 111 4.8 9.7 0.00 0.00 0.00 57 1017.1
20260507101004 14 23 3.2 12.9 0.00 0.00 0.00 53 1017.1
20260507100503 14 68 4.8 9.7 0.00 0.00 0.00 57 1017.1
20260507100003 14 61 4.8 12.9 0.00 0.00 0.00 55 1017.0
20260507095504 14 43 6.4 11.3 0.00 0.00 0.00 56 1017.0
20260507095004 14 112 4.8 11.3 0.00 0.00 0.00 57 1016.9
20260507094503 14 51 4.8 8.0 0.00 0.00 0.00 59 1016.9
20260507094004 14 71 4.8 8.0 0.00 0.00 0.00 60 1016.9
20260507093004 14 44 3.2 9.7 0.00 0.00 0.00 58 1016.9
20260507092503 13 24 3.2 9.7 0.00 0.00 0.00 61 1016.8
20260507092004 13 83 3.2 11.3 0.00 0.00 0.00 60 1016.8
20260507091504 13 91 4.8 4.8 0.00 0.00 0.00 62 1016.8
20260507091004 13 83 4.8 4.8 0.00 0.00 0.00 64 1016.8
20260507090503 12 103 3.2 4.8 0.00 0.00 0.00 64 1016.8
20260507090004 12 257 1.6 4.8 0.00 0.00 0.00 64 1016.8
20260507085504 11 257 3.2 4.8 0.00 0.00 0.00 62 1016.8
20260507085004 11 256 1.6 4.8 0.00 0.00 0.00 60 1016.8
20260507084503 11 256 1.6 4.8 0.00 0.00 0.00 61 1016.9
20260507084004 11 256 3.2 4.8 0.00 0.00 0.00 64 1016.9
20260507083504 11 255 3.2 8.0 0.00 0.00 0.00 64 1016.8
20260507083004 12 227 1.6 4.8 0.00 0.00 0.00 62 1016.8
20260507082504 12 139 1.6 3.2 0.00 0.00 0.00 59 1016.9
20260507082003 12 136 0.0 4.8 0.00 0.00 0.00 60 1016.8
20260507081504 12 136 3.2 4.8 0.00 0.00 0.00 64 1016.8
20260507081004 12 141 1.6 4.8 0.00 0.00 0.00 62 1016.8
20260507080003 11 54 1.6 3.2 0.00 0.00 0.00 63 1016.8
20260507075503 11 53 1.6 4.8 0.00 0.00 0.00 65 1016.7
20260507075003 11 82 1.6 4.8 0.00 0.00 0.00 66 1016.7
20260507074503 11 69 1.6 3.2 0.00 0.00 0.00 66 1016.6
20260507073504 11 69 1.6 4.8 0.00 0.00 0.00 65 1016.5
20260507073004 11 69 1.6 4.8 0.00 0.00 0.00 65 1016.5
20260507072504 11 71 1.6 4.8 0.00 0.00 0.00 63 1016.5
20260507072004 11 71 3.2 8.0 0.00 0.00 0.00 66 1016.5
20260507071504 11 82 3.2 4.8 0.00 0.00 0.00 66 1016.4
20260507071004 11 102 3.2 9.7 0.00 0.00 0.00 69 1016.4
20260507070007 10 88 3.2 4.8 0.00 0.00 0.00 70 1016.4
20260507065503 10 77 0.0 3.2 0.00 0.00 0.00 72 1016.3
20260507065004 9 77 1.6 4.8 0.00 0.00 0.00 72 1016.3
20260507064504 9 77 0.0 3.2 0.00 0.00 0.00 72 1016.3
20260507064004 9 76 3.2 4.8 0.00 0.00 0.00 74 1016.2
20260507063504 8 344 0.0 0.0 0.00 0.00 0.00 75 1016.3
20260507063003 8 344 0.0 1.6 0.00 0.00 0.00 75 1016.3
20260507062504 8 344 1.6 4.8 0.00 0.00 0.00 74 1016.2
20260507062003 8 344 1.6 3.2 0.00 0.00 0.00 76 1016.2
20260507061504 8 340 0.0 0.0 0.00 0.00 0.00 76 1016.1
20260507061004 7 340 0.0 0.0 0.00 0.00 0.00 77 1016.2
20260507060504 7 340 0.0 0.0 0.00 0.00 0.00 78 1016.1
20260507060003 7 340 0.0 0.0 0.00 0.00 0.00 81 1016.1
20260507055505 7 340 0.0 0.0 0.00 0.00 0.00 82 1016.1
20260507055004 6 340 0.0 0.0 0.00 0.00 0.00 82 1016.1
20260507054503 6 340 0.0 0.0 0.00 0.00 0.00 85 1016.0
20260507053503 5 340 0.0 0.0 0.00 0.00 0.00 86 1015.9
20260507053004 5 340 0.0 0.0 0.00 0.00 0.00 87 1015.8
20260507052503 5 340 0.0 0.0 0.00 0.00 0.00 87 1015.8
20260507052004 5 340 0.0 0.0 0.00 0.00 0.00 88 1015.8
20260507051504 5 340 0.0 0.0 0.00 0.00 0.00 89 1015.7
20260507051004 5 340 0.0 0.0 0.00 0.00 0.00 91 1015.7
20260507050005 4 340 0.0 0.0 0.00 0.00 0.00 91 1015.6
20260507045504 3 340 0.0 0.0 0.00 0.00 0.00 92 1015.6
20260507045004 3 340 0.0 0.0 0.00 0.00 0.00 91 1015.6
20260507044004 2 340 0.0 0.0 0.00 0.00 0.00 91 1015.5
20260507043004 2 340 0.0 0.0 0.00 0.00 0.00 91 1015.3
20260507042503 2 340 0.0 0.0 0.00 0.00 0.00 90 1015.3
20260507042004 2 340 0.0 0.0 0.00 0.00 0.00 90 1015.2
20260507041503 2 340 0.0 0.0 0.00 0.00 0.00 90 1015.2
20260507041003 1 340 0.0 0.0 0.00 0.00 0.00 90 1015.2
20260507040504 1 340 0.0 0.0 0.00 0.00 0.00 89 1015.1
20260507035004 1 340 0.0 0.0 0.00 0.00 0.00 89 1015.1
20260507034003 1 340 0.0 0.0 0.00 0.00 0.00 88 1015.0
20260507033504 2 340 0.0 0.0 0.00 0.00 0.00 88 1014.9
20260507033003 2 340 0.0 0.0 0.00 0.00 0.00 89 1015.0
20260507032504 2 340 0.0 0.0 0.00 0.00 0.00 89 1015.0
20260507032004 2 340 0.0 0.0 0.00 0.00 0.00 89 1015.0
20260507031504 2 340 0.0 0.0 0.00 0.00 0.00 89 1014.9
20260507030504 2 340 0.0 0.0 0.00 0.00 0.00 88 1014.9
20260507030004 2 340 0.0 0.0 0.00 0.00 0.00 89 1014.9
20260507025504 2 340 0.0 0.0 0.00 0.00 0.00 89 1014.9
20260507025004 2 340 0.0 0.0 0.00 0.00 0.00 89 1014.9
20260507024504 2 340 0.0 0.0 0.00 0.00 0.00 89 1014.9
20260507024004 2 340 0.0 0.0 0.00 0.00 0.00 89 1014.8
20260507023504 2 340 0.0 0.0 0.00 0.00 0.00 89 1014.8
20260507023004 2 340 0.0 0.0 0.00 0.00 0.00 89 1014.9
20260507022503 2 340 0.0 0.0 0.00 0.00 0.00 88 1014.9
20260507022003 2 340 0.0 0.0 0.00 0.00 0.00 88 1014.8
20260507021504 2 340 0.0 0.0 0.00 0.00 0.00 88 1014.7
20260507021004 2 340 0.0 0.0 0.00 0.00 0.00 88 1014.7
20260507020504 2 340 0.0 0.0 0.00 0.00 0.00 88 1014.7
20260507015504 2 340 0.0 0.0 0.00 0.00 0.00 88 1014.7
20260507015004 2 340 0.0 0.0 0.00 0.00 0.00 88 1014.7
20260507014504 2 340 0.0 0.0 0.00 0.00 0.00 88 1014.7
20260507014004 2 340 0.0 0.0 0.00 0.00 0.00 88 1014.6
20260507013503 2 340 0.0 0.0 0.00 0.00 0.00 87 1014.5
20260507013003 2 340 0.0 0.0 0.00 0.00 0.00 87 1014.5
20260507012504 2 340 0.0 0.0 0.00 0.00 0.00 87 1014.4
20260507012004 3 340 0.0 0.0 0.00 0.00 0.00 87 1014.5
20260507011503 3 340 0.0 0.0 0.00 0.00 0.00 87 1014.5
20260507011004 3 340 0.0 0.0 0.00 0.00 0.00 87 1014.4
20260507010504 3 340 0.0 0.0 0.00 0.00 0.00 86 1014.4
20260507010004 3 340 0.0 0.0 0.00 0.00 0.00 86 1014.4
20260507005504 3 340 0.0 0.0 0.00 0.00 0.00 86 1014.4
20260507005004 3 340 0.0 0.0 0.00 0.00 0.00 86 1014.4
20260507004503 3 340 0.0 0.0 0.00 0.00 0.00 86 1014.4
20260507004003 3 340 0.0 0.0 0.00 0.00 0.00 86 1014.4
20260507003504 3 340 0.0 0.0 0.00 0.00 0.00 86 1014.4
20260507002504 3 340 0.0 0.0 0.00 0.00 0.00 86 1014.5
20260507002003 3 340 0.0 0.0 0.00 0.00 0.00 86 1014.4
20260507001503 3 340 0.0 0.0 0.00 0.00 0.00 86 1014.4
20260507001003 3 340 0.0 0.0 0.00 0.00 0.00 85 1014.4
20260507000503 3 340 0.0 0.0 0.00 0.00 0.00 86 1014.4
20260507000004 3 340 0.0 0.0 0.00 0.00 0.00 85 1014.4
20260506235504 3 340 0.0 0.0 0.00 0.00 0.00 85 1014.4
20260506234504 3 340 0.0 0.0 0.00 0.00 0.00 85 1014.4
20260506234004 3 340 0.0 0.0 0.00 0.00 0.00 85 1014.5
20260506233503 3 340 0.0 0.0 0.00 0.00 0.00 85 1014.5
20260506233003 3 340 0.0 0.0 0.00 0.00 0.00 85 1014.5
20260506232004 3 340 0.0 1.6 0.00 0.00 0.00 85 1014.5
20260506231003 3 340 0.0 0.0 0.00 0.00 0.00 84 1014.4
20260506230503 3 340 0.0 0.0 0.00 0.00 0.00 84 1014.4
20260506230004 3 340 0.0 0.0 0.00 0.00 0.00 83 1014.5
20260506225504 3 340 0.0 0.0 0.00 0.00 0.00 83 1014.5
20260506224503 3 340 0.0 0.0 0.00 0.00 0.00 83 1014.4
20260506223504 3 340 1.6 3.2 0.00 0.00 0.00 83 1014.4
20260506222504 3 340 0.0 0.0 0.00 0.00 0.00 83 1014.3
20260506222004 3 340 1.6 3.2 0.00 0.00 0.00 83 1014.3
20260506221504 4 340 0.0 0.0 0.00 0.00 0.00 83 1014.3
20260506221003 4 340 0.0 3.2 0.00 0.00 0.00 83 1014.3
20260506220503 4 340 0.0 0.0 0.00 0.00 0.00 83 1014.3
20260506220004 4 340 0.0 0.0 0.00 0.00 0.00 83 1014.3
20260506215504 4 340 0.0 0.0 0.00 0.00 0.00 82 1014.2
20260506215004 4 340 0.0 0.0 0.00 0.00 0.00 82 1014.1
20260506214504 4 340 0.0 3.2 0.00 0.00 0.00 82 1014.1
20260506214003 4 340 1.6 3.2 0.00 0.00 0.00 82 1014.1
20260506213504 4 340 0.0 1.6 0.00 0.00 0.00 82 1014.0
20260506213004 4 340 0.0 1.6 0.00 0.00 0.00 82 1013.9
20260506212503 4 340 0.0 1.6 0.00 0.00 0.00 81 1014.0
20260506212003 4 340 0.0 1.6 0.00 0.00 0.00 81 1014.0
20260506211503 5 340 0.0 0.0 0.00 0.00 0.00 80 1013.9
20260506211003 5 340 0.0 0.0 0.00 0.00 0.00 81 1013.8
20260506210504 5 340 0.0 1.6 0.00 0.00 0.00 80 1013.8
20260506210004 5 340 1.6 4.8 0.00 0.00 0.00 80 1013.8
20260506205504 5 339 0.0 0.0 0.00 0.00 0.00 80 1013.8